Date,TemperatureHighF,TemperatureAvgF,TemperatureLowF,DewpointHighF,DewpointAvgF,DewpointLowF,HumidityHigh,HumidityAvg,HumidityLow,PressureMaxIn,PressureMinIn,WindSpeedMaxMPH,WindSpeedAvgMPH,GustSpeedMaxMPH,PrecipitationSumIn
2013-9-1,82,72,66,73,69,65,99,90,69,29.85,29.75,6,0,6,0.00
2013-9-2,83,72,66,74,68,64,98,89,71,29.78,29.65,14,1,15,0.28
2013-9-3,68,63,58,66,58,56,96,85,73,29.94,29.75,11,1,11,0.01
2013-9-4,76,59,53,60,55,52,98,89,53,30.03,29.94,12,1,12,0.00
2013-9-5,66,60,50,57,49,43,91,68,54,30.20,29.99,17,3,17,0.00
2013-9-6,69,56,38,53,46,38,98,72,45,30.33,30.16,9,0,9,0.00
2013-9-7,69,58,45,59,51,44,97,80,55,30.16,29.92,9,1,9,0.00
2013-9-8,64,59,45,61,52,42,97,79,56,30.15,29.86,18,2,20,0.00
2013-9-9,73,56,38,57,48,37,98,78,53,30.25,30.09,14,2,14,0.00
2013-9-10,87,72,61,75,67,57,96,86,67,30.12,30.01,16,2,16,0.09
2013-9-11,86,74,68,77,71,66,98,92,70,30.08,29.95,10,1,10,0.64
2013-9-12,80,68,61,72,66,60,98,95,72,29.94,29.71,12,1,12,0.63
2013-9-13,61,55,49,60,53,47,98,93,81,29.96,29.71,18,3,18,0.03
2013-9-14,56,48,41,48,45,40,97,89,68,30.19,29.96,10,1,10,0.02
2013-9-15,65,51,38,52,45,-53,98,84,51,30.26,30.11,7,0,8,0.01
2013-9-16,60,52,39,54,48,37,97,88,74,30.37,30.09,14,2,15,0.01
2013-9-17,63,47,33,48,40,32,97,78,45,30.52,30.37,11,1,11,0.00
2013-9-18,70,53,36,51,44,35,98,75,44,30.37,30.18,9,1,9,0.00
2013-9-19,74,58,45,58,49,44,95,77,41,30.19,30.08,2,0,6,0.00
2013-9-20,74,66,49,60,57,48,97,74,58,30.08,29.91,12,2,12,0.00
2013-9-21,65,61,56,60,58,56,98,90,82,29.92,29.64,19,3,19,0.62
2013-9-22,55,50,46,53,46,41,98,88,72,30.01,29.71,12,2,16,0.01
2013-9-23,54,47,39,45,42,37,96,83,68,30.15,30.01,15,2,15,0.00
2013-9-24,62,48,35,49,43,35,98,82,50,30.15,30.02,13,1,15,0.00
2013-9-25,68,51,35,54,45,34,98,83,51,30.05,29.95,9,1,9,0.00
2013-9-26,66,46,39,54,44,38,98,94,66,30.15,30.02,6,0,8,0.01
2013-9-27,68,55,44,58,51,43,98,86,62,30.29,30.18,7,1,7,0.00
2013-9-28,69,56,47,56,50,46,97,82,55,30.36,30.24,9,1,9,0.00
2013-9-29,69,57,44,54,49,44,97,78,53,30.25,30.08,12,1,13,0.00
2013-9-30,75,58,45,58,52,45,98,81,51,30.09,29.98,7,1,7,0.01